TimeEDT,TemperatureF,Dew PointF,Humidity,Sea Level PressureIn,VisibilityMPH,Wind Direction,Wind SpeedMPH,Gust SpeedMPH,PrecipitationIn,Events,Conditions,WindDirDegrees,DateUTC
12:53 AM,66.9,60.1,79,30.10,10.0,East,3.5,-,N/A,,Partly Cloudy,90,2013-06-20 04:53:00
1:53 AM,66.9,57.9,73,30.10,10.0,Calm,Calm,-,N/A,,Clear,0,2013-06-20 05:53:00
2:53 AM,64.9,57.9,78,30.10,10.0,Calm,Calm,-,N/A,,Unknown,0,2013-06-20 06:53:00
3:53 AM,64.0,57.0,78,30.10,10.0,ENE,3.5,-,N/A,,Unknown,60,2013-06-20 07:53:00
4:53 AM,63.0,57.0,81,30.11,10.0,Calm,Calm,-,N/A,,Clear,0,2013-06-20 08:53:00
5:53 AM,62.1,57.9,86,30.13,10.0,ENE,4.6,-,N/A,,Clear,60,2013-06-20 09:53:00
6:53 AM,63.0,59.0,87,30.14,10.0,East,3.5,-,N/A,,Partly Cloudy,90,2013-06-20 10:53:00
7:53 AM,66.9,57.9,73,30.15,10.0,SSE,9.2,-,N/A,,Clear,160,2013-06-20 11:53:00
8:53 AM,73.0,59.0,61,30.16,10.0,SE,4.6,-,N/A,,Clear,130,2013-06-20 12:53:00
9:53 AM,75.9,60.1,58,30.17,10.0,South,6.9,-,N/A,,Clear,180,2013-06-20 13:53:00
10:53 AM,77.0,61.0,58,30.17,10.0,South,5.8,-,N/A,,Clear,190,2013-06-20 14:53:00
11:53 AM,81.0,61.0,50,30.17,10.0,Calm,Calm,-,N/A,,Clear,0,2013-06-20 15:53:00
12:53 PM,82.9,60.1,46,30.17,10.0,SSW,9.2,-,N/A,,Clear,200,2013-06-20 16:53:00
1:53 PM,82.9,57.0,41,30.15,10.0,SSW,4.6,-,N/A,,Clear,200,2013-06-20 17:53:00
2:53 PM,86.0,54.0,33,30.14,10.0,South,3.5,-,N/A,,Mostly Cloudy,180,2013-06-20 18:53:00
3:53 PM,87.1,57.0,36,30.14,10.0,SSE,8.1,-,N/A,,Mostly Cloudy,150,2013-06-20 19:53:00
4:53 PM,86.0,55.0,35,30.12,10.0,Calm,Calm,-,N/A,,Scattered Clouds,0,2013-06-20 20:53:00
5:53 PM,88.0,53.1,30,30.12,10.0,Calm,Calm,-,N/A,,Clear,0,2013-06-20 21:53:00
6:53 PM,86.0,54.0,33,30.11,10.0,ESE,4.6,-,N/A,,Clear,110,2013-06-20 22:53:00
7:53 PM,84.0,55.9,38,30.10,10.0,SE,6.9,-,N/A,,Clear,140,2013-06-20 23:53:00
8:53 PM,79.0,57.0,47,30.11,10.0,SE,4.6,-,N/A,,Clear,140,2013-06-21 00:53:00
9:53 PM,75.0,57.9,55,30.12,10.0,SE,4.6,-,N/A,,Clear,140,2013-06-21 01:53:00
10:53 PM,71.1,59.0,66,30.14,10.0,ESE,4.6,-,N/A,,Clear,110,2013-06-21 02:53:00
11:53 PM,68.0,60.1,76,30.14,10.0,ESE,4.6,-,N/A,,Clear,120,2013-06-21 03:53:00